Regional Weather Roundup
Issued by NWS

Home | Current Version | Previous Version | Text Only | Print | Product List | Glossary Off
Versions: 1 2 3 4 5 6 7 8 9 10 11 12 13 14 15 16 17 18 19 20 21 22 23 24 25 26 27 28 29 30 31 32 33 34 35 36 37 38 39 40 41 42 43 44 45 46 47 48 49 50

000
ASUS43 KMPX 281610
RWRMN
WEATHER ROUNDUP FOR MINNESOTA
NATIONAL WEATHER SERVICE TWIN CITIES/CHANHASSEN MN
1100 AM CDT SAT MAR 28 2015


NOTE: "FAIR" INDICATES FEW OR NO CLOUDS BELOW 12,000 FEET WITH NO
SIGNIFICANT WEATHER AND/OR OBSTRUCTIONS TO VISIBILITY. N/A MEANS
CURRENT SKY AND/OR WEATHER CONDITIONS ARE NOT AVAILABLE.

MNZ060>063-068>070-281700-
   Twin Cities Metro

CITY           SKY/WX    TMP DP  RH WIND       PRES   REMARKS
TWIN CITIES    SUNNY     33  11  39 S13       30.26R WCI  24
ST PAUL        SUNNY     35  13  40 S8        30.27S WCI  29
CRYSTAL        SUNNY     36  13  38 S9        30.24R
BLAINE         SUNNY     36  14  41 S12       30.24S
LAKEVILLE      SUNNY     27  16  63 SE6       30.25S WCI  20
EDEN PRAIRIE   SUNNY     35  13  40 S8        30.24S WCI  29
SOUTH ST PAUL  SUNNY     34  13  42 SE8       30.26S WCI  27
LAKE ELMO      FAIR      36  14  41 S12       30.26F
$$
MNZ001>005-007-008-013>017-022>024-027-028-281700-
   Northwest Minnesota

CITY           SKY/WX    TMP DP  RH WIND       PRES   REMARKS
BEMIDJI        SUNNY     34  16  47 S13G18    30.10F WCI  25
HALLOCK        SUNNY     34  27  75 S20G28    30.00F WCI  22
ROSEAU         MOSUNNY   36  23  60 S17       30.03F
WARROAD        SUNNY     36  21  55 S12G17    30.04F
THIEF RVR FALL SUNNY     36  23  60 S17G23    30.05F
CROOKSTON      SUNNY     37  25  60 S21       30.06F
FOSSTON        SUNNY     36  19  51 S20G25    30.07F
DETROIT LAKES  SUNNY     34  25  69 S14       30.10F WCI  24
MOORHEAD       SUNNY     37  28  70 S18       30.09F
PARK RAPIDS    SUNNY     36  16  44 S14       30.11F
MAHNOMEN       FAIR      35  22  60 S21       30.08F WCI  23
$$
MNZ006-009>011-018-025>026-281700-
   North Central Minnesota

CITY           SKY/WX    TMP DP  RH WIND       PRES   REMARKS
BAUDETTE       SUNNY     35  14  42 S14G22    30.06F WCI  26
FLAG ISLAND    SUNNY     21  16  79 S12       30.03F WCI   9
INTL FALLS     SUNNY     35  10  35 SW14G20   30.10F WCI  26
WASKISH        SUNNY     37   9  30 S10G18    30.09F
BIG FORK       SUNNY     37  10  32 S14       30.12F
LONGVILLE      SUNNY     36  12  38 S13       30.14F
GRAND RAPIDS   SUNNY     32   9  37 S15G21    30.15F WCI  22
CRANE LAKE     SUNNY     32   9  37 S9        30.16F WCI  24
ORR            SUNNY     36   7  30 S8        30.11F
COOK           SUNNY     34   9  35 S12       30.15F WCI  25
WALKER         FAIR      33  14  45 S13       30.12F WCI  24
$$
MNZ012-019>021-037-281700-
   Northeast Minnesota

CITY           SKY/WX    TMP DP  RH WIND       PRES   REMARKS
DULUTH         SUNNY     35   7  31 SW14      30.18F WCI  26
ELY            SUNNY     34   5  29 SW12      30.15F WCI  25
HIBBING        SUNNY     33   9  36 VRB7      30.16F WCI  27
EVELETH        SUNNY     34  10  37 SW14G20   30.17F WCI  24
DULUTH HARBOR  SUNNY     30  16  55 CALM      30.25S
TWO HARBORS    SUNNY     37  18  44 SW6       30.19F
SILVER BAY     SUNNY     36  12  38 SW6       30.18F
GRAND MARAIS     N/A     28  18  66 SW7       30.24F WCI  21
G MARAIS ARPRT SUNNY     28   7  40 SW5       30.16F WCI  23
$$
MNZ029>031-032-039>041-046>048-054>057-064-281700-
   West Central Minnesota

CITY           SKY/WX    TMP DP  RH WIND       PRES   REMARKS
FERGUS FALLS   PTSUNNY   37  21  52 S15       30.14F
WHEATON        CLOUDY    34  27  75 S16       30.13F WCI  23
MORRIS         PTSUNNY   36  27  69 S15       30.13S
ALEXANDRIA     SUNNY     35  23  61 S15       30.14F WCI  25
ELBOW LAKE     FAIR      37  26  66 S16G22    30.13S
WADENA         SUNNY     36  21  55 S16       30.12F
GLENWOOD       SUNNY     36  25  64 S13       30.16S
APPLETON       MOSUNNY   36  27  69 S12G17    30.15S
BENSON         CLOUDY    37  25  60 S15       30.16S
ORTONVILLE     CLOUDY    36  27  69 S13       30.12F
MADISON        CLOUDY    37  27  65 S16       30.14F
WILLMAR        PTSUNNY   36  25  64 S13       30.19S
$$
MNZ033>034-036-042>043-049>051-058-059-281700-
   Central Minnesota

CITY           SKY/WX    TMP DP  RH WIND       PRES   REMARKS
ST CLOUD       SUNNY     35  17  47 S12       30.20F WCI  27
SAUK CENTRE    FAIR      35  22  59 SE14      30.17S WCI  26
PAYNESVILLE    SUNNY     32  21  63 E10       30.19S WCI  24
AITKIN         SUNNY     36  -2  20 S12       30.17F
PINE RIVER     SUNNY     34  18  51 S13       30.18F WCI  25
BRAINERD       SUNNY     35  14  42 S13       30.18S WCI  26
STAPLES        SUNNY     36  18  48 S16       30.15S
LONG PRAIRIE   FAIR      34  23  64 SE10      30.16F WCI  26
LITTLE FALLS   SUNNY     34  16  47 SE10      30.18F WCI  26
LITCHFIELD     SUNNY     36  23  60 SE6       30.20S
BUFFALO        SUNNY     34  18  51 S7        30.23S WCI  28
MAPLE LAKE     SUNNY     37  22  56 SE9       30.22S
$$
MNZ037-044-045-052-053-281700-
   East Central Minnesota

CITY           SKY/WX    TMP DP  RH WIND       PRES   REMARKS
PRINCETON      SUNNY     37  14  38 SE8       30.22F
MORA           SUNNY     34   9  35 S6        30.24S WCI  29
CAMBRIDGE      SUNNY     37  19  48 S9        30.21F
RUSH CITY      SUNNY     33   6  31 S9        30.24S WCI  26
MOOSE LAKE     SUNNY     36  12  38 S12G18    30.19F
HINCKLEY       FAIR      34  14  44 S15       30.23S WCI  24
CLOQUET        SUNNY     34   5  29 S8G16     30.19F WCI  27
MCGREGOR       SUNNY     34  10  37 S10       30.19S WCI  26
$$
MNZ071>073-080-081-089-090-097-098-281700-
   Southwest Minnesota

CITY           SKY/WX    TMP DP  RH WIND       PRES   REMARKS
MONTEVIDEO     CLOUDY    36  27  69 SW13      30.17S
GRANITE FALLS  CLOUDY    35  26  70 SE14      30.18F WCI  26
CANBY          MOSUNNY   38  26  62 S13       30.14F
MARSHALL       CLOUDY    36  25  64 S15       30.16F
REDWOOD FALLS  CLOUDY    35  25  66 S12       30.19S WCI  27
OLIVIA         MOSUNNY   34  27  75 SE12      30.18S WCI  25
PIPESTONE      SUNNY     34  28  80 S16       30.11F WCI  23
WINDOM         CLOUDY    34  27  75 SE10      30.18R WCI  26
WORTHINGTON    CLOUDY    36  25  64 S15       30.17S
JACKSON        CLOUDY    34  27  75 SE9       30.19S WCI  26
TRACY          CLOUDY    34  29  83 S13       30.16S WCI  25
SLAYTON        MOSUNNY   34  30  85 SE14      30.15S WCI  25
$$
MNZ065>067-074>077-082>085-091>093-281700-
   South Central Minnesota

CITY           SKY/WX    TMP DP  RH WIND       PRES   REMARKS
MANKATO        SUNNY     34  19  55 S9        30.23S WCI  26
NEW ULM        MOSUNNY   36  21  55 S10       30.20F
ST JAMES       CLOUDY    36  23  60 SE10      30.22S
FAIRMONT       CLOUDY    36  19  51 S13       30.20S
GLENCOE        SUNNY     33  22  64 SE6       30.22S WCI  27
FARIBAULT      SUNNY     34  16  47 S9        30.25S WCI  26
OWATONNA       SUNNY     32  18  55 S10       30.24S WCI  24
WASECA         SUNNY     34  21  60 S10       30.24S WCI  26
ALBERT LEA     SUNNY     37  18  44 S10       30.23S
$$
MNZ078>079-086>088-094>096-281700-
   Southeast Minnesota

CITY           SKY/WX    TMP DP  RH WIND       PRES   REMARKS
ROCHESTER      SUNNY     28  15  58 S13       30.26S WCI  17
RED WING       SUNNY     36   9  32 S8        30.27S
STANTON        SUNNY     33  14  46 S9        30.25R WCI  25
DODGE CENTER   SUNNY     28  18  64 SE9       30.24S WCI  20
WINONA         SUNNY     34  14  44 S6        30.30S WCI  29
AUSTIN         SUNNY     30  19  64 S7        30.25S WCI  23
PRESTON        SUNNY     28  12  50 SE9       30.27S WCI  19
$$
ABBREVIATIONS USED IN REMARKS
   TC - TEMPERATURES IN CELSIUS
  WCI - WIND CHILL INDEX
   HX - HEAT INDEX
  VSB - VISIBILITY
$$


USA.gov is the U.S. government's official web portal to all federal, state and local government web resources and services.